Terminal Aerodrome Forecast
Issued by NWS Key West, FL

Home | Current Version | Previous Version | Text Only | Print | Product List | Glossary On
Versions: 1 2 3 4 5 6 7 8 9 10 11 12 13 14 15 16 17 18 19 20 21 22 23 24 25 26 27 28 29 30 31 32 33 34 35 36 37 38 39 40
000
FTUS42 KKEY 172100 AAB
TAFEYW
TAF AMD
KEYW 172145Z 1722/1818 VRB05KT P6SM VCSH SCT025 SCT050
     FM172300 34009G15KT P6SM SCT025 BKN040 OVC120
      TEMPO 1723/1803 3SM SHRA BKN025
     FM180500 23005KT P6SM FEW025 BKN120=

USA.gov is the U.S. government's official web portal to all federal, state and local government web resources and services.